This is the latest recevied weather packets stored in our database for station/object N0NB. If no packets are shown the sender has not sent any weather packets the latest 10 day(s).
| Time | Temp. | Humidity | Pressure | Rain* | Wind** | Luminosity | Snow |
|---|---|---|---|---|---|---|---|
| 1788653117 | 33.33° C | 55% | 1011.1 hPa | 0 mm | - | 73 W/m² | - |
| 1788652517 | 33.89° C | 52% | 1011.1 hPa | 0 mm | - | 107 W/m² | - |
| 1788651917 | 34.44° C | 52% | 1011.1 hPa | 0 mm | - | 144 W/m² | - |
| 1788651317 | 34.44° C | 51% | 1011 hPa | 0 mm | - | 174 W/m² | - |
| 1788650717 | 34.44° C | 51% | 1011 hPa | 0 mm | - | 202 W/m² | - |
| 1788650117 | 35° C | 50% | 1011 hPa | 0 mm | - | 235 W/m² | - |
| 1788649517 | 35° C | 51% | 1011 hPa | 0 mm | - | 199 W/m² | - |
| 1788648917 | 35.56° C | 48% | 1011 hPa | 0 mm | - | 309 W/m² | - |
| 1788648317 | 36.11° C | 48% | 1011 hPa | 0 mm | - | 341 W/m² | - |
| 1788647717 | 36.11° C | 48% | 1011 hPa | 0 mm | - | 369 W/m² | - |
| 1788647117 | 36.11° C | 49% | 1011 hPa | 0 mm | - | 399 W/m² | - |
| 1788646517 | 36.11° C | 46% | 1011.2 hPa | 0 mm | - | 421 W/m² | - |
| 1788645916 | 36.11° C | 46% | 1011.4 hPa | 0 mm | - | 447 W/m² | - |
| 1788645316 | 36.11° C | 46% | 1011.5 hPa | 0 mm | - | 485 W/m² | - |
| 1788644716 | 36.67° C | 47% | 1011.5 hPa | 0 mm | - | 530 W/m² | - |
| 1788644116 | 36.67° C | 47% | 1011.5 hPa | 0 mm | - | 464 W/m² | - |
| 1788643516 | 36.67° C | 47% | 1011.6 hPa | 0 mm | - | 586 W/m² | - |
| 1788642952 | 36.67° C | 47% | 1011.8 hPa | 0 mm | - | 607 W/m² | - |
| 1788642316 | 36.67° C | 47% | 1012.1 hPa | 0 mm | - | 629 W/m² | - |
| 1788641716 | 36.67° C | 45% | 1012.2 hPa | 0 mm | - | 614 W/m² | - |
| 1788641116 | 36.67° C | 45% | 1012.3 hPa | 0 mm | - | 654 W/m² | - |
| 1788640516 | 36.67° C | 44% | 1012.5 hPa | 0 mm | - | 699 W/m² | - |
| 1788639917 | 36.67° C | 46% | 1012.6 hPa | 0 mm | - | 679 W/m² | - |
| 1788639316 | 36.11° C | 47% | 1012.7 hPa | 0 mm | - | 687 W/m² | - |
| 1788638716 | 36.11° C | 48% | 1012.7 hPa | 0 mm | - | 163 W/m² | - |
* Rain latest hour (hover to see other rain measurements)
** Current wind speed in m/s (hover to see current wind gust speed)